Weather History for Barrow, AK

Change the Weather History Date:

Tuesday, May 8, 2012

  Actual Average Record
Temperature  
Mean Temperature 7 °F 17 °F  
Max Temperature 13 °F 22 °F 35 °F (1985)
Min Temperature 1 °F 12 °F -11 °F (1944)
Degree Days  
Heating Degree Days 58 48  
Month to date heating degree days 472 404  
Since 1 July heating degree days 17629 17551  
Cooling Degree Days 0    
Month to date cooling degree days 0  
Year to date cooling degree days 0  
Moisture  
Dew Point 4 °F    
Average Humidity 0    
Maximum Humidity 92    
Minimum Humidity 81    
Precipitation  
Precipitation T in 0.01 in 0.09 in (1940)
Month to date precipitation 0.28 0.04  
Year to date precipitation 0.87 0.56  
Snow  
Snow 0.10 in 0.10 in 1.20 in (1940)
Month to date snowfall 3.7 0.8  
Since 1 July snowfall 74.2 35.1  
Snow Depth 14.00 in    
Sea Level Pressure  
Sea Level Pressure 30.08 in    
Wind  
Wind Speed 9 mph (ENE)    
Max Wind Speed 17 mph    
Max Gust Speed 21 mph    
Visibility 6 miles    
Events Fog , Snow    
T = Trace of Precipitation, MM = Missing Value Source: NWS Daily Summary

Daily Weather History Graph

Daily Weather History Graph

Search for Another Location

Airport:

Trip Planner

Search our weather history database for the weather conditions in past years. The results will help you decide how hot, cold, wet, or windy it might be!

Date:

Astronomy

May. 08, 2012 Rise Set
Actual Time 3:24 AM AKDT 1:36 AM AKDT
Civil Twilight Sun does not rise Sun does not rise
Nautical Twilight Sun does not rise Sun does not rise
Astronomical Twilight Sun does not rise Sun does not rise
Moon No Moon Rise No Moon Set
Length of Visible Light 24h 00m
Length of Day
22h 11m
Waning Gibbous, 89% of the Moon is Illuminated
May 8
Waning Gibbous
May 12
Last Quarter
May 20
New
May 28
First Quarter
Jun 4
Full

Hourly Weather History & Observations

Time (AKDT) Temp. Windchill Dew Point Humidity Pressure Visibility Wind Dir Wind Speed Gust Speed Precip Events Conditions
12:53 AM 6.1 °F -10.2 °F 1.9 °F 83% 30.27 in 10.0 mi NE 12.7 mph - N/A   Partly Cloudy
1:53 AM 5.0 °F -11.6 °F 1.0 °F 84% 30.25 in 10.0 mi NE 12.7 mph - N/A   Partly Cloudy
2:53 AM 3.9 °F -13.7 °F 1.0 °F 88% 30.24 in 10.0 mi NE 13.8 mph - N/A   Partly Cloudy
3:53 AM 3.0 °F -14.1 °F -0.0 °F 87% 30.23 in 10.0 mi ENE 12.7 mph - N/A   Partly Cloudy
4:53 AM 1.9 °F -15.5 °F -0.9 °F 88% 30.22 in 10.0 mi NE 12.7 mph - N/A   Partly Cloudy
5:53 AM 1.9 °F -15.5 °F -0.9 °F 88% 30.21 in 10.0 mi NE 12.7 mph - N/A   Partly Cloudy
6:53 AM 1.9 °F -14.7 °F -0.9 °F 88% 30.19 in 10.0 mi ENE 11.5 mph - N/A   Partly Cloudy
7:53 AM 1.9 °F -15.5 °F -0.9 °F 88% 30.17 in 10.0 mi ENE 12.7 mph - N/A   Partly Cloudy
8:53 AM 1.0 °F -14.9 °F -2.9 °F 83% 30.16 in 10.0 mi ENE 10.4 mph - N/A   Partly Cloudy
9:27 AM 1.4 °F -15.3 °F -2.2 °F 85% 30.14 in 10.0 mi ENE 11.5 mph - N/A   Partly Cloudy
9:51 AM 1.4 °F -16.9 °F -2.2 °F 85% 30.14 in 10.0 mi East 13.8 mph - N/A   Mostly Cloudy
9:53 AM 1.9 °F -16.2 °F -2.0 °F 83% 30.15 in 10.0 mi East 13.8 mph - N/A   Mostly Cloudy
10:16 AM 3.2 °F -15.3 °F -0.4 °F 85% 30.14 in 1.8 mi East 15.0 mph - N/A   Overcast
10:26 AM 1.4 °F -17.6 °F -2.2 °F 85% 30.14 in 1.2 mi East 15.0 mph - N/A   Overcast
10:30 AM 1.4 °F -16.9 °F -2.2 °F 85% 30.14 in 4.0 mi East 13.8 mph - N/A   Scattered Clouds
10:53 AM 1.9 °F -12.9 °F -0.9 °F 88% 30.14 in 4.0 mi East 9.2 mph - N/A   Scattered Clouds
10:58 AM 3.2 °F -11.3 °F -0.4 °F 85% 30.13 in 2.0 mi East 9.2 mph - N/A   Overcast
11:05 AM 3.2 °F -11.3 °F -0.4 °F 85% 30.13 in 1.2 mi East 9.2 mph - N/A   Overcast
11:17 AM 3.2 °F -11.3 °F 1.4 °F 92% 30.13 in 1.0 mi ENE 9.2 mph - N/A   Overcast
11:53 AM 6.1 °F -6.8 °F 3.9 °F 91% 30.12 in 0.2 mi NE 8.1 mph - 0.00 in Fog , Snow Light Snow
12:39 PM 8.6 °F -3.7 °F 6.8 °F 92% 30.10 in 0.2 mi ENE 8.1 mph - 0.00 in Fog , Snow Light Snow
12:53 PM 9.0 °F -4.2 °F 7.0 °F 92% 30.11 in 0.2 mi ENE 9.2 mph - 0.00 in Fog , Snow Light Snow
1:00 PM 8.6 °F -4.7 °F 6.8 °F 92% 30.10 in 0.5 mi ENE 9.2 mph - 0.00 in Fog , Snow Light Snow
1:15 PM 8.6 °F -3.7 °F 6.8 °F 92% 30.10 in 2.5 mi ENE 8.1 mph - 0.00 in Snow Light Snow
1:23 PM 8.6 °F -3.7 °F 6.8 °F 92% 30.09 in 3.0 mi ENE 8.1 mph - 0.00 in Snow Light Snow
1:34 PM 8.6 °F -3.7 °F 6.8 °F 92% 30.09 in 3.0 mi ENE 8.1 mph - 0.00 in Snow Light Snow
1:53 PM 9.0 °F -0.9 °F 6.1 °F 88% 30.09 in 3.0 mi ENE 5.8 mph - 0.00 in Snow Light Snow
2:53 PM 10.9 °F 0.2 °F 6.1 °F 81% 30.07 in 5.0 mi ENE 6.9 mph - 0.00 in Snow Light Snow
3:00 PM 10.4 °F 0.8 °F 6.8 °F 85% 30.06 in 1.8 mi East 5.8 mph - 0.00 in Snow Light Snow
3:02 PM 10.4 °F 0.8 °F 6.8 °F 85% 30.06 in 4.0 mi ENE 5.8 mph - 0.00 in Snow Light Snow
3:53 PM 10.0 °F 0.4 °F 6.1 °F 84% 30.04 in 5.0 mi East 5.8 mph - 0.00 in Snow Light Snow
4:24 PM 10.4 °F 2.2 °F 6.8 °F 85% 30.03 in 5.0 mi East 4.6 mph - 0.00 in Snow Light Snow
4:53 PM 12.0 °F 4.1 °F 8.1 °F 84% 30.03 in 4.0 mi ENE 4.6 mph - 0.00 in Snow Light Snow
5:53 PM 12.0 °F 2.7 °F 8.1 °F 84% 30.01 in 2.5 mi East 5.8 mph - 0.00 in Snow Light Snow
6:05 PM 12.2 °F 4.3 °F 8.6 °F 85% 30.00 in 5.0 mi East 4.6 mph - 0.00 in Snow Light Snow
6:53 PM 12.0 °F 1.5 °F 8.1 °F 84% 29.98 in 5.0 mi East 6.9 mph - 0.00 in Snow Light Snow
7:53 PM 10.9 °F 2.9 °F 8.1 °F 88% 29.95 in 7.0 mi East 4.6 mph - 0.00 in Snow Light Snow
8:53 PM 10.9 °F 1.4 °F 7.0 °F 84% 29.94 in 7.0 mi East 5.8 mph - 0.00 in Snow Light Snow
9:18 PM 10.4 °F -0.4 °F 6.8 °F 85% 29.92 in 8.0 mi ESE 6.9 mph - 0.00 in Snow Light Snow
9:53 PM 10.9 °F 0.2 °F 7.0 °F 84% 29.92 in 9.0 mi ESE 6.9 mph - 0.00 in Snow Light Snow
10:44 PM 10.4 °F -0.4 °F 6.8 °F 85% 29.90 in 9.0 mi East 6.9 mph - 0.00 in Snow Light Snow
10:53 PM 10.9 °F 0.2 °F 7.0 °F 84% 29.90 in 9.0 mi East 6.9 mph - 0.00 in Snow Light Snow
11:02 PM 10.4 °F 0.8 °F 6.8 °F 85% 29.89 in 9.0 mi East 5.8 mph - 0.00 in Snow Light Snow
11:28 PM 10.4 °F 0.8 °F 6.8 °F 85% 29.88 in 9.0 mi East 5.8 mph - 0.00 in Snow Light Snow
11:36 PM 10.4 °F 2.2 °F 6.8 °F 85% 29.88 in 9.0 mi ENE 4.6 mph - 0.00 in Snow Light Snow
11:53 PM 10.9 °F 2.9 °F 7.0 °F 84% 29.88 in 9.0 mi ENE 4.6 mph - 0.00 in Snow Light Snow